Weather in Ilet'

Russia / Mari El Republic     56°34′18″N   49°30′03″E
temp.,
°C
wind,
m/s
gust,
m/s
humid.,
%
clouds,
%
prec.,
mm/h
press.,
hPa
HPBL,
m
28 february, sun
sun2800:00−17n499699 0.0 1006235
03:00−19n499692 0.1 1007229
06:00−19n499796 0.0 1008247
09:00−18n489493 0.0 1009273
12:00−15n479267 0.0 1010357
15:00−14n489077 0.0 1012500
18:00−18n389690 0.0 1014176
21:00−20n349846 0.0 101680
1 march, mon
mon100:00−21nnw33980 0.0 101864
03:00−22nnw23990 0.0 101933
06:00−23nnw239810 0.0 102129
09:00−19nnw13945 0.0 1022153
12:00−13wnw238533 0.0 1021380
15:00−11sw248861 0.0 1020432
18:00−15ssw369791 0.0 1017122
21:00−15ssw489795 0.1 1015225
2 march, tue
tue200:00−12ssw51095100 0.1 1011313
03:00−10ssw61293100 0.6 1007430
06:00−8ssw61294100 0.9 1002519
09:00−4ssw61195100 1.8 999503
12:00−1ssw5999100 1.1 997477
15:000wnw3799100 2.5 996496
18:000w3798100 0.8 996399
21:00−1nw4994100 2.1 997495
3 march, wed
wed300:00−5nnw3994100 0.0 997251
03:00−7nnw359693 0.0 999126
06:00−7nnw3896100 0.0 1000220
09:00−6nnw389491 0.1 1001303
12:00−3nw589290 0.0 1002602
15:00−3nw599294 0.2 1004836
18:00−6nnw4119099 0.3 1005611
21:00−10nw3119364 0.3 1008270
4 march, thu
thu400:00−11wnw399621 0.0 1008198
03:00−13w379734 0.0 1009130
06:00−14wsw369881 0.0 1009118
09:00−10wsw489589 0.1 1008307
12:00−5sw61190100 0.0 1005579
15:00−3sw71495100 0.5 1001919
18:00−2sw71495100 0.9 999887
21:000wsw81695100 1.8 9961153